Regional Weather Roundup
Issued by NWS Charleston, SC

Current Version | Previous Version | Graphics & Text | Print | Product List | Glossary On
Versions: 1 2 3 4 5 6 7 8 9 10 11 12 13 14 15 16 17 18 19 20 21 22 23 24 25 26 27 28 29 30 31 32 33 34 35 36 37 38 39 40 41 42 43 44 45 46 47 48 49 50
000
ASUS42 KCHS 292126
RWRCHS

REGIONAL WEATHER ROUNDUP
NATIONAL WEATHER SERVICE CHARLESTON SC
400 PM EST THU JAN 29 2015

NOTE: "FAIR" INDICATES FEW OR NO CLOUDS BELOW 12,000 FEET WITH NO
SIGNIFICANT WEATHER AND/OR OBSTRUCTIONS TO VISIBILITY.

NOT ALL STATIONS ARE QUALITY CONTROLLED BY THE NATIONAL
WEATHER SERVICE. USE DATA WITH CAUTION...ESPECIALLY
DEWPOINT OBSERVATIONS.

SCZ027-030-031-034>040-042>050-292200-
...SOUTHEAST SOUTH CAROLINA...

CITY           SKY/WX    TMP DP  RH WIND       PRES   REMARKS
N CHARLESTON   PTSUNNY   56  36  47 SW9       30.23F
WATERFRONT PRK   N/A     55 N/A N/A E5          N/A
MOUNT PLEASANT FAIR      54  37  54 CALM      30.24F
PINOPOLIS        N/A     59  36  41 SW7       30.14F
MONCKS CORNER  FAIR      59  34  38 S7        30.21F
SUMMERVILLE    FAIR      55  36  47 S5        30.23F
BEAUFORT MCAS  PTSUNNY   56  41  57 S9        30.24S
BEAUFORT ARPT  FAIR      55  43  62 S7        30.23F
HILTON HEAD IS MOSUNNY   54  41  62 SE3       30.24F
WALTERBORO     PTCLDY    59  32  36 SW8       30.22F
ALLENDALE      FAIR      57  32  38 VRB5      30.20F

...SOUTHERN MIDLANDS AND PEE DEE...

CITY           SKY/WX    TMP DP  RH WIND       PRES   REMARKS
GEORGETOWN     NOT AVBL
KINGSTREE      NOT AVBL
ORANGEBURG     SUNNY     56  22  26 SW12      30.20F
BARNWELL       FAIR      57  30  35 S8        30.20F
AIKEN          FAIR      55  25  30 S9        30.20F
MANNING        FAIR      55  -8   7 S7        30.21F
COLUMBIA       PTSUNNY   57  22  25 S10       30.18F
SUMTER         MOSUNNY   56  21  26 SW12      30.18F
FLORENCE       MOSUNNY   55  17  22 S9G20     30.20F
MYRTLE BEACH   SUNNY     50  30  46 S10       30.27F
N MYRTLE BEACH PTSUNNY   49  30  48 S7        30.24F

$$

GAZ063-065-086>088-099>101-113>116-118-119-134>141-150-292200-
...SOUTHEAST GEORGIA...

CITY           SKY/WX    TMP DP  RH WIND       PRES   REMARKS
SAVANNAH ARPT  CLOUDY    60  40  47 S10       30.22F
HUNTER AAF     PTSUNNY   58  43  57 SE7       30.22S
FORT STEWART   PTSUNNY   63  37  38 VRB6      30.20F
STATESBORO     PTSUNNY   59  35  40 SW6       30.22S
SYLVANIA       MOCLDY    59  38  44 S6        30.22F
CLAXTON        FAIR      61  36  39 S6        30.22S

...CSRA...CENTRAL AND FAR SOUTHEAST GEORGIA...

CITY           SKY/WX    TMP DP  RH WIND       PRES   REMARKS
THOMSON        MOSUNNY   59  29  32 S6        30.20F
AUGUSTA-BUSH   SUNNY     58  24  27 SW13      30.19F
AUGUSTA-DANIEL SUNNY     57  23  26 S12       30.18F
SWAINSBORO     FAIR      61   1   9 S7        30.20F
VIDALIA        MOSUNNY   59  36  41 S5        30.22R
EASTMAN        FAIR      61  30  31 S7        30.23F
HAZLEHURST     FAIR      62  35  35 SW5       30.21S
ALMA           MOSUNNY   63  36  36 SW7       30.21F
WAYCROSS       MOSUNNY   67  43  41 SW9       30.22F
JESUP          FAIR      64  45  48 SW8       30.22F
BAXLEY         FAIR      63  34  34 SW3       30.21F
BRUNSWICK      CLOUDY    61  45  55 SE7       30.24F
SAINT SIMONS   CLOUDY    56  44  64 E7        30.24S

$$

SCZ027-028-034-036>038-045-046-048>050-GAZ119-141-292200-
...LAKE AND SUPPLEMENTAL COASTAL OBSERVATIONS...

STATION/POSITION TIME  TEMP    WIND        PRES    WAVE   SWELL
                       AIR SEA DIR/SP/G            HT/PER HT/PER/DIR
                 (UTC) (F)     (DEG/KT/KT) (MB)    (FT/S) (FT/S/D)
UPR LAKE MARION  NOT AVBL
WINYAH BAY       2045   51     170/  6     1023.0F
LAKE MURRAY      2100   53     190/ 13/ 15 1020.7F
ACE BASIN NERRS  2000   54     170/  1     1024.0
FORT PULASKI     2100   54 52  140/  3/  5 1024.5F
SAPELO ISLAND    2100   58     120/  5     1024.0S

$$

ANZ835-935-AMZ111-154-330-350-352-354-370-450-454-472-292200-
...C-MAN AND BUOY OBSERVATIONS...

STATION/POSITION TIME  TEMP    WIND        PRES    WAVE   SWELL
                       AIR SEA DIR/SP/G            HT/PER HT/PER/DIR
                 (UTC) (F)     (DEG/KT/KT) (MB)    (FT/S) (FT/S/D)
BUOY 41004       2050   57 68  200/  8/ 10 1023.7F   3/ 8   3/ 8
BUOY 41008       2050   52 54  360/  6/  8 1024.1R   3/11   3/ 90/11
FOLLY BEACH CMAN 2100   50      70/  2/  2 1024.5F
CAPERS NEARSHORE 2000   53      CALM  /  4   N/A
FRIPP NEARSHORE  2000   51     100/  4/  4 1023.5


STATION/POSITION TIME  TEMP    WIND        PRES    WAVE   SWELL
                       AIR SEA DIR/SP/G            HT/PER HT/PER/DIR
                 (UTC) (F)     (DEG/KT/KT) (MB)    (FT/S) (FT/S/D)
5E ST. MARYS GA  NOT AVBL
FRYING PAN BUOY  2050   53 67  210/  8/ 10 1024.6F   3/10   3/ 70/10
BUOY 41025       2050   42 71  270/  4/  8 1023.9F   4/ 9   3/ 50/ 9
CAPE LOOKOUT NC  2100   42     230/  5/  6 1024.0F
BUOY 41002       2050   57 72  320/  6/ 10 1024.2R   6/ 9   7/ 20/ 9
BUOY 41010       2020   64 75   60/  6/  8 1024.2F
ST AUGUSTINE FL  2100   57      30/  5/  6 1024.1F


$$



USA.gov is the U.S. government's official web portal to all federal, state and local government web resources and services.